When you browse on this site, cookies collect data to enhance your experience and personalize the content and advertising you see.
Visit our Privacy Policy to learn more. By continuing to use the site, you agree to this use of cookies and data.
  • In Österreich
  • Länderverzeichnis
  • Für 7 Tage
  • Wassertemperatur
  • Wetterkarte
  • News
  • Widgets
  • user-avatar
    Anmelden

    Stündliche Wetter Russe

    Heute, 28 Mai, Donnerstag

    Zeit Temperatur Niederschläge Wind Luftdruck Luftfeuchtigkeit
    00:00 +12°C° 0.1 mm 1 m/S 759 mmHg 86%
    01:00 +12°C° 0.1 mm 1 m/S 759 mmHg 87%
    02:00 +10°C° 0 mm 0 m/S 758 mmHg 89%
    03:00 +10°C° 0 mm 0 m/S 758 mmHg 89%
    04:00 +11°C° 0 mm 1 m/S 758 mmHg 89%
    05:00 +11°C° 0 mm 1 m/S 758 mmHg 89%
    06:00 +12°C° 0.1 mm 1 m/S 758 mmHg 87%
    07:00 +13°C° 0.1 mm 1 m/S 757 mmHg 84%
    08:00 +14°C° 0.1 mm 2 m/S 757 mmHg 82%
    09:00 +15°C° 0.7 mm 2 m/S 757 mmHg 78%
    10:00 +17°C° 0.7 mm 3 m/S 757 mmHg 74%
    11:00 +18°C° 0.7 mm 4 m/S 756 mmHg 69%
    12:00 +19°C° 0.6 mm 4 m/S 756 mmHg 66%
    13:00 +19°C° 0.6 mm 3 m/S 755 mmHg 62%
    14:00 +20°C° 0.6 mm 3 m/S 755 mmHg 58%
    15:00 +20°C° 0.6 mm 3 m/S 755 mmHg 59%
    16:00 +20°C° 0.6 mm 3 m/S 754 mmHg 61%
    17:00 +19°C° 0.6 mm 3 m/S 754 mmHg 62%
    18:00 +18°C° 0.4 mm 3 m/S 754 mmHg 69%
    19:00 +16°C° 0.4 mm 3 m/S 754 mmHg 76%
    20:00 +14°C° 0.4 mm 2 m/S 754 mmHg 82%
    21:00 +14°C° 0 mm 2 m/S 755 mmHg 84%
    22:00 +13°C° 0 mm 2 m/S 755 mmHg 86%
    23:00 +13°C° 0 mm 2 m/S 755 mmHg 88%

    Morgen, 29 Mai, Freitag

    Zeit Temperatur Niederschläge Wind Luftdruck Luftfeuchtigkeit
    00:00 +12°C° 0 mm 2 m/S 755 mmHg 89%
    01:00 +12°C° 0 mm 2 m/S 755 mmHg 90%
    02:00 +10°C° 0 mm 2 m/S 755 mmHg 92%
    03:00 +10°C° 0 mm 2 m/S 755 mmHg 92%
    04:00 +10°C° 0 mm 2 m/S 755 mmHg 92%
    05:00 +9°C° 0 mm 2 m/S 755 mmHg 92%
    06:00 +11°C° 0.1 mm 3 m/S 755 mmHg 89%
    07:00 +12°C° 0.1 mm 3 m/S 755 mmHg 85%
    08:00 +14°C° 0.1 mm 4 m/S 755 mmHg 81%
    09:00 +15°C° 0 mm 4 m/S 755 mmHg 76%
    10:00 +17°C° 0 mm 5 m/S 755 mmHg 71%
    11:00 +20°C° 0 mm 5 m/S 755 mmHg 66%
    12:00 +20°C° 0.7 mm 5 m/S 754 mmHg 64%
    13:00 +21°C° 0.7 mm 5 m/S 754 mmHg 62%
    14:00 +22°C° 0.7 mm 4 m/S 754 mmHg 59%
    15:00 +21°C° 1.1 mm 4 m/S 754 mmHg 61%
    16:00 +21°C° 1.1 mm 4 m/S 754 mmHg 63%
    17:00 +21°C° 1.1 mm 3 m/S 754 mmHg 64%
    18:00 +19°C° 1 mm 3 m/S 754 mmHg 71%
    19:00 +17°C° 1 mm 3 m/S 754 mmHg 77%
    20:00 +16°C° 1 mm 3 m/S 754 mmHg 84%
    21:00 +15°C° 0.3 mm 2 m/S 754 mmHg 86%
    22:00 +14°C° 0.3 mm 2 m/S 754 mmHg 88%
    23:00 +14°C° 0.3 mm 2 m/S 755 mmHg 90%

    übermorgen, 30 Mai, Samstag

    Zeit Temperatur Niederschläge Wind Luftdruck Luftfeuchtigkeit
    00:00 +13°C° 0.1 mm 2 m/S 754 mmHg 90%
    01:00 +13°C° 0.1 mm 2 m/S 754 mmHg 90%
    02:00 +13°C° 0.1 mm 1 m/S 754 mmHg 90%
    03:00 +12°C° 0 mm 1 m/S 754 mmHg 90%
    04:00 +12°C° 0 mm 2 m/S 754 mmHg 89%
    05:00 +12°C° 0 mm 2 m/S 754 mmHg 89%
    06:00 +13°C° 0 mm 3 m/S 754 mmHg 85%
    07:00 +14°C° 0 mm 3 m/S 754 mmHg 80%
    08:00 +17°C° 0 mm 4 m/S 755 mmHg 75%
    09:00 +18°C° 0 mm 4 m/S 755 mmHg 72%
    10:00 +19°C° 0 mm 5 m/S 754 mmHg 69%
    11:00 +21°C° 0 mm 5 m/S 754 mmHg 65%
    12:00 +21°C° 0 mm 5 m/S 754 mmHg 62%
    13:00 +22°C° 0 mm 4 m/S 754 mmHg 59%
    14:00 +23°C° 0 mm 4 m/S 753 mmHg 55%
    15:00 +23°C° 0.1 mm 4 m/S 753 mmHg 56%
    16:00 +23°C° 0.1 mm 4 m/S 753 mmHg 56%
    17:00 +24°C° 0.1 mm 3 m/S 753 mmHg 57%
    18:00 +21°C° 0.1 mm 3 m/S 753 mmHg 63%
    19:00 +19°C° 0.1 mm 3 m/S 753 mmHg 70%
    20:00 +18°C° 0.1 mm 2 m/S 753 mmHg 77%
    21:00 +17°C° 0 mm 2 m/S 753 mmHg 78%
    22:00 +16°C° 0 mm 2 m/S 753 mmHg 80%
    23:00 +16°C° 0 mm 2 m/S 754 mmHg 82%

    31 Mai, Sonntag

    Zeit Temperatur Niederschläge Wind Luftdruck Luftfeuchtigkeit
    00:00 +15°C° 0.1 mm 2 m/S 753 mmHg 83%
    01:00 +15°C° 0.1 mm 2 m/S 753 mmHg 85%
    02:00 +14°C° 0.1 mm 2 m/S 753 mmHg 87%
    03:00 +14°C° 0 mm 2 m/S 753 mmHg 88%
    04:00 +13°C° 0 mm 2 m/S 753 mmHg 89%
    05:00 +13°C° 0 mm 2 m/S 753 mmHg 90%
    06:00 +14°C° 0 mm 3 m/S 753 mmHg 84%
    07:00 +15°C° 0 mm 4 m/S 753 mmHg 78%
    08:00 +18°C° 0 mm 4 m/S 753 mmHg 72%
    09:00 +19°C° 0 mm 5 m/S 753 mmHg 67%
    10:00 +21°C° 0 mm 5 m/S 753 mmHg 63%
    11:00 +22°C° 0 mm 5 m/S 752 mmHg 58%
    12:00 +22°C° 0.3 mm 5 m/S 752 mmHg 57%
    13:00 +23°C° 0.3 mm 5 m/S 752 mmHg 57%
    14:00 +23°C° 0.3 mm 5 m/S 751 mmHg 56%
    15:00 +23°C° 0.5 mm 5 m/S 751 mmHg 58%
    16:00 +22°C° 0.5 mm 5 m/S 751 mmHg 60%
    17:00 +22°C° 0.5 mm 5 m/S 751 mmHg 63%
    18:00 +20°C° 0.1 mm 4 m/S 751 mmHg 67%
    19:00 +19°C° 0.1 mm 4 m/S 751 mmHg 71%
    20:00 +17°C° 0.1 mm 3 m/S 751 mmHg 75%
    21:00 +16°C° 0 mm 3 m/S 751 mmHg 75%
    22:00 +14°C° 0 mm 3 m/S 751 mmHg 75%
    23:00 +14°C° 0 mm 4 m/S 752 mmHg 75%

    1 Juni, Montag

    Zeit Temperatur Niederschläge Wind Luftdruck Luftfeuchtigkeit
    00:00 +13°C° 0 mm 4 m/S 751 mmHg 77%
    01:00 +13°C° 0 mm 4 m/S 751 mmHg 78%
    02:00 +12°C° 0 mm 4 m/S 751 mmHg 79%
    03:00 +12°C° 0 mm 4 m/S 751 mmHg 81%
    04:00 +12°C° 0 mm 4 m/S 751 mmHg 83%
    05:00 +11°C° 0 mm 3 m/S 751 mmHg 85%
    06:00 +13°C° 0 mm 4 m/S 751 mmHg 80%
    07:00 +14°C° 0 mm 5 m/S 751 mmHg 75%
    08:00 +16°C° 0 mm 6 m/S 751 mmHg 71%
    09:00 +17°C° 0 mm 5 m/S 751 mmHg 67%
    10:00 +19°C° 0 mm 5 m/S 751 mmHg 63%
    11:00 +20°C° 0 mm 5 m/S 751 mmHg 60%
    12:00 +21°C° 0.2 mm 5 m/S 751 mmHg 59%
    13:00 +21°C° 0.2 mm 4 m/S 751 mmHg 58%
    14:00 +21°C° 0.2 mm 4 m/S 750 mmHg 57%
    15:00 +21°C° 0.1 mm 4 m/S 750 mmHg 58%
    16:00 +21°C° 0.1 mm 3 m/S 750 mmHg 58%
    17:00 +21°C° 0.1 mm 3 m/S 750 mmHg 59%
    18:00 +19°C° 0.1 mm 2 m/S 750 mmHg 65%
    19:00 +18°C° 0.1 mm 2 m/S 750 mmHg 71%
    20:00 +16°C° 0.1 mm 2 m/S 750 mmHg 78%
    21:00 +16°C° 0 mm 2 m/S 751 mmHg 80%
    22:00 +15°C° 0 mm 2 m/S 751 mmHg 83%
    23:00 +14°C° 0 mm 2 m/S 751 mmHg 86%

    2 Juni, Dienstag

    Zeit Temperatur Niederschläge Wind Luftdruck Luftfeuchtigkeit
    00:00 +14°C° 0.1 mm 1 m/S 751 mmHg 87%
    01:00 +13°C° 0.1 mm 1 m/S 751 mmHg 89%
    02:00 +13°C° 0.1 mm 1 m/S 751 mmHg 90%
    03:00 +13°C° 0 mm 1 m/S 751 mmHg 90%
    04:00 +13°C° 0 mm 1 m/S 751 mmHg 90%
    05:00 +13°C° 0 mm 1 m/S 751 mmHg 90%
    06:00 +14°C° 0 mm 1 m/S 752 mmHg 85%
    07:00 +16°C° 0 mm 1 m/S 752 mmHg 79%
    08:00 +19°C° 0 mm 1 m/S 752 mmHg 74%
    09:00 +20°C° 0.8 mm 1 m/S 752 mmHg 71%
    10:00 +21°C° 0.8 mm 1 m/S 752 mmHg 68%
    11:00 +21°C° 0.8 mm 2 m/S 752 mmHg 64%
    12:00 +21°C° 1 mm 2 m/S 752 mmHg 63%
    13:00 +23°C° 1 mm 2 m/S 752 mmHg 62%
    14:00 +23°C° 1 mm 2 m/S 751 mmHg 61%
    15:00 +23°C° 0.3 mm 2 m/S 751 mmHg 61%
    16:00 +23°C° 0.3 mm 2 m/S 751 mmHg 62%
    17:00 +23°C° 0.3 mm 2 m/S 750 mmHg 62%
    18:00 +21°C° 0.1 mm 2 m/S 751 mmHg 69%
    19:00 +19°C° 0.1 mm 2 m/S 751 mmHg 76%
    20:00 +17°C° 0.1 mm 2 m/S 751 mmHg 83%
    21:00 +18°C° 0.1 mm 1 m/S 751 mmHg 84%
    22:00 +16°C° 0.1 mm 1 m/S 751 mmHg 86%
    23:00 +15°C° 0.1 mm 1 m/S 752 mmHg 88%
    Mehr zeigen